CW6421 Weather Reports


Display with metric or nautical units.
time (UTC)temp
F
wind
direction
speed
MPH
gust
MPH
rain 1hr
in
rain 24hr
in
rain mn
in
humidity
%
barometer
mb
20260509034530 49 53 3.0 5.0 0.00 0.00 0.00 75 1021.5
20260509031530 49 55 3.0 5.0 0.00 0.00 0.00 75 1021.5
20260509030526 50 45 3.0 8.0 0.00 0.00 0.00 75 1021.5
20260509025525 50 40 4.0 8.0 0.00 0.00 0.00 75 1021.5
20260509024529 50 21 2.0 8.0 0.00 0.00 0.00 75 1021.5
20260509023526 50 28 2.0 8.0 0.00 0.00 0.00 75 1021.5
20260509021528 50 44 4.0 8.0 0.00 0.00 0.00 74 1021.5
20260509020527 50 32 5.0 7.0 0.00 0.00 0.00 74 1021.3
20260509015527 50 47 4.0 7.0 0.00 0.00 0.00 74 1021.3
20260509014528 50 27 6.0 6.0 0.00 0.00 0.00 73 1021.3
20260509013527 50 26 5.0 6.0 0.00 0.00 0.00 73 1021.3
20260509012525 51 35 6.0 8.0 0.00 0.00 0.00 73 1021.3
20260509011529 51 43 6.0 7.0 0.00 0.00 0.00 73 1021.3
20260509005526 51 48 5.0 9.0 0.00 0.00 0.00 73 1021.6
20260509004529 51 45 5.0 8.0 0.00 0.00 0.00 73 1021.6
20260509002526 51 43 4.0 8.0 0.00 0.00 0.00 73 1021.6
20260508235526 52 59 5.0 7.0 0.00 0.00 0.00 73 1021.6
20260508234530 52 32 5.0 8.0 0.00 0.00 0.00 73 1021.6
20260508233527 52 38 4.0 8.0 0.00 0.00 0.00 73 1021.6
20260508231527 52 28 3.0 8.0 0.00 0.00 0.00 73 1021.6
20260508230527 53 22 4.0 5.0 0.00 0.00 0.00 73 1021.6
20260508225529 53 20 5.0 6.0 0.00 0.00 0.00 73 1021.6
20260508223532 53 12 2.0 3.0 0.00 0.00 0.00 73 1021.6
20260508222527 53 21 4.0 5.0 0.00 0.00 0.00 73 1021.6
20260508221529 53 11 2.0 3.0 0.00 0.00 0.00 73 1021.6
20260508220528 53 345 3.0 6.0 0.00 0.00 0.00 72 1021.5
20260508214529 53 359 1.0 6.0 0.00 0.00 0.00 72 1021.5
20260508213530 53 354 1.0 6.0 0.00 0.00 0.00 71 1021.5
20260508212526 53 346 1.0 5.0 0.00 0.00 0.00 71 1021.5
20260508211528 53 343 1.0 6.0 0.00 0.00 0.00 71 1021.5
20260508210528 54 88 2.0 6.0 0.00 0.00 0.00 70 1021.3
20260508204529 54 75 2.0 6.0 0.00 0.00 0.00 69 1021.3
20260508203526 54 77 2.0 5.0 0.00 0.00 0.00 70 1021.3
20260508202528 54 76 3.0 6.0 0.00 0.00 0.00 69 1021.3
20260508200528 54 89 4.0 7.0 0.00 0.00 0.00 69 1021.0
20260508194530 54 86 4.0 8.0 0.00 0.01 0.00 69 1021.0
20260508193528 54 72 2.0 8.0 0.00 0.01 0.00 69 1021.0
20260508190528 55 61 4.0 10.0 0.00 0.01 0.00 67 1020.5
20260508185527 55 74 3.0 11.0 0.00 0.01 0.00 67 1020.5
20260508184530 55 65 4.0 11.0 0.00 0.01 0.00 67 1020.5
20260508183527 55 60 7.0 10.0 0.00 0.01 0.00 66 1020.5
20260508182526 56 50 6.0 11.0 0.00 0.01 0.00 65 1020.5
20260508181528 56 64 6.0 10.0 0.00 0.01 0.00 65 1020.5
20260508180528 56 67 7.0 10.0 0.00 0.01 0.00 65 1020.2
20260508175528 56 72 5.0 10.0 0.00 0.01 0.00 65 1020.2
20260508173527 57 65 7.0 9.0 0.00 0.01 0.00 64 1020.2
20260508172527 57 77 8.0 9.0 0.00 0.01 0.00 64 1020.2
20260508171529 57 89 5.0 10.0 0.00 0.02 0.00 64 1020.2
20260508170526 57 76 6.0 12.0 0.00 0.02 0.00 64 1020.2
20260508165527 58 79 4.0 11.0 0.00 0.02 0.00 63 1020.2
20260508162528 58 68 6.0 12.0 0.00 0.02 0.00 63 1020.2
20260508161530 58 80 6.0 10.0 0.00 0.02 0.00 62 1020.2
20260508160528 58 74 6.0 13.0 0.00 0.02 0.00 62 1020.3
20260508155527 58 64 7.0 14.0 0.00 0.02 0.00 62 1020.3
20260508154529 58 89 6.0 13.0 0.00 0.02 0.00 63 1020.3
20260508153534 58 79 8.0 14.0 0.00 0.02 0.00 63 1020.3
20260508152528 58 89 6.0 14.0 0.00 0.02 0.00 63 1020.3
20260508151530 58 49 9.0 12.0 0.00 0.02 0.00 63 1020.3
20260508150527 58 53 10.0 12.0 0.00 0.02 0.00 62 1020.4
20260508145527 59 48 8.0 8.0 0.00 0.02 0.00 62 1020.4
20260508144529 59 77 3.0 8.0 0.00 0.02 0.00 62 1020.4
20260508143528 59 80 5.0 8.0 0.00 0.02 0.00 62 1020.4
20260508142527 59 73 4.0 7.0 0.00 0.02 0.00 63 1020.4
20260508141529 59 37 3.0 8.0 0.00 0.02 0.00 63 1020.4
20260508140528 59 42 5.0 9.0 0.00 0.02 0.00 62 1020.8
20260508135531 59 30 5.0 8.0 0.00 0.02 0.00 62 1020.8
20260508134530 60 22 4.0 8.0 0.00 0.02 0.00 61 1020.8
20260508133526 61 24 6.0 7.0 0.00 0.02 0.00 61 1020.8
20260508132527 59 37 4.0 7.0 0.00 0.02 0.00 63 1020.8
20260508131529 58 66 1.0 8.0 0.00 0.02 0.00 64 1020.8
20260508130527 58 308 2.0 8.0 0.00 0.02 0.00 64 1020.9
20260508125526 58 309 2.0 10.0 0.00 0.02 0.00 64 1020.9
20260508124530 58 29 1.0 8.0 0.00 0.02 0.00 64 1020.9
20260508123526 58 27 1.0 8.0 0.00 0.02 0.00 64 1020.9
20260508122527 59 10 1.0 8.0 0.00 0.02 0.00 64 1020.9
20260508120527 57 311 4.0 10.0 0.00 0.02 0.00 66 1021.1
20260508115527 56 305 6.0 10.0 0.00 0.02 0.00 67 1021.1
20260508114530 57 55 4.0 11.0 0.00 0.02 0.00 68 1021.1
20260508113527 57 48 4.0 11.0 0.00 0.02 0.00 68 1021.1
20260508112526 56 55 4.0 10.0 0.00 0.02 0.00 69 1021.1
20260508111529 56 60 2.0 10.0 0.00 0.02 0.00 69 1021.1
20260508105527 55 55 4.0 8.0 0.00 0.02 0.00 69 1021.0
20260508104529 55 33 6.0 8.0 0.00 0.02 0.00 69 1021.0
20260508102528 55 32 6.0 8.0 0.00 0.02 0.00 70 1021.0
20260508101529 55 52 5.0 9.0 0.00 0.02 0.00 70 1021.0
20260508100528 55 51 5.0 8.0 0.00 0.02 0.00 71 1020.9
20260508095526 55 58 6.0 9.0 0.00 0.02 0.00 71 1020.9
20260508094529 55 44 6.0 9.0 0.00 0.02 0.00 72 1020.9
20260508092527 54 34 4.0 8.0 0.00 0.02 0.00 73 1020.9
20260508090527 54 45 5.0 10.0 0.00 0.02 0.00 74 1020.8
20260508085527 54 42 4.0 10.0 0.00 0.02 0.00 74 1020.8
20260508084529 54 60 3.0 12.0 0.00 0.02 0.00 74 1020.8
20260508082527 53 50 3.0 11.0 0.00 0.02 0.00 76 1020.8
20260508081530 53 59 3.0 11.0 0.00 0.02 0.00 77 1020.8
20260508080528 53 51 5.0 11.0 0.00 0.02 0.00 78 1020.4
20260508075526 53 47 4.0 10.0 0.00 0.02 0.00 78 1020.4
20260508074529 52 59 8.0 11.0 0.00 0.02 0.00 79 1020.4
20260508072526 51 60 6.0 11.0 0.00 0.02 0.00 81 1020.4
20260508071529 51 61 8.0 11.0 0.00 0.02 0.00 81 1020.4
20260508070527 50 64 7.0 10.0 0.00 0.02 0.00 82 1020.0
20260508064530 49 30 6.0 10.0 0.00 0.02 0.00 82 1020.0
20260508061529 48 45 6.0 10.0 0.00 0.02 0.00 84 1020.0
20260508060529 48 42 7.0 10.0 0.00 0.02 0.00 84 1019.8
20260508055527 47 34 7.0 10.0 0.00 0.02 0.00 84 1019.8
20260508054530 47 49 7.0 10.0 0.00 0.02 0.00 84 1019.8
20260508052527 47 55 8.0 10.0 0.00 0.02 0.00 84 1019.8
20260508051529 47 41 7.0 9.0 0.00 0.02 0.00 84 1019.8
20260508050528 47 44 7.0 8.0 0.00 0.02 0.00 84 1019.5
20260508045527 47 30 6.0 8.0 0.00 0.02 0.00 84 1019.5
20260508044528 47 40 5.0 7.0 0.00 0.02 0.00 84 1019.5
20260508043527 47 31 5.0 7.0 0.00 0.02 0.00 84 1019.5
20260508042528 46 32 4.0 8.0 0.00 0.02 0.00 84 1019.5
20260508041531 46 27 6.0 8.0 0.00 0.02 0.00 84 1019.5
20260508040529 46 35 5.0 7.0 0.00 0.02 0.00 84 1019.3